sat.trackr.live / text

‹ back to catalog

STARLINK-5710

NORAD 55616 · 2023-020AZ

PAYLOAD ACTIVE UNKNOWN

§ Identity

Operator
Country
US
Launch date
2023-02-12
Launch site
AFETR
Launch vehicle
Mass (kg)
RCS (m²)

Purposes: comms

External: N2YO · Heavens-Above · Gunter

§ Orbital elements

Epoch: 2026-05-24T21:05:49.551072Z

Period
94.27 min
Inclination
43.0002°
Eccentricity
0.0001483
Mean motion
15.27594032 rev/d
Perigee alt
482.0 km
Apogee alt
484.0 km
Semi-major
6,861.1 km
B*
5.0633e-5
RAAN
283.7665°
Arg perigee
251.9818°
Mean anomaly
108.0872°
Rev number
18,069

§ Raw data

STARLINK-57101 55616U 23020AZ  26144.87904573  .00001132  00000+0  50633-4 0  99972 55616  43.0002 283.7665 0001483 251.9818 108.0872 15.27594032180699

JSON: /api/v1/satellites/55616 · /tle

For live sub-satellite position, see the globe view (requires WebGL).

§ Visibility from observer

Set your observer location to see the next 7 days of passes ≥ 10°. The values pass through the URL so the page stays shareable.

No JS? Fill the form by hand. The geolocation button needs JavaScript.